| time (UTC) | temp F | wind direction | speed MPH | gust MPH | rain 1hr in | rain 24hr in | rain mn in | humidity % | barometer mb |
| 20260906075716 | 82 | 171 | 2.0 | 4.0 | 0.00 | 0.00 | 0.00 | 71 | 1010.7 |
| 20260906074717 | 82 | 169 | 1.0 | 5.0 | 0.00 | 0.00 | 0.00 | 70 | 1010.8 |
| 20260906073718 | 82 | 143 | 1.0 | 3.0 | 0.00 | 0.00 | 0.00 | 70 | 1010.9 |
| 20260906072718 | 83 | 163 | 1.0 | 4.0 | 0.00 | 0.00 | 0.00 | 69 | 1010.9 |
| 20260906071720 | 83 | 153 | 1.0 | 4.0 | 0.00 | 0.00 | 0.00 | 69 | 1010.7 |
| 20260906070720 | 83 | 162 | 2.0 | 4.0 | 0.00 | 0.00 | 0.00 | 69 | 1010.6 |
| 20260906065717 | 83 | 183 | 2.0 | 6.0 | 0.00 | 0.00 | 0.00 | 69 | 1010.7 |
| 20260906064717 | 83 | 145 | 1.0 | 3.0 | 0.00 | 0.00 | 0.00 | 69 | 1010.9 |
| 20260906064157 | 83 | 190 | 2.0 | 3.0 | 0.00 | 0.00 | 0.00 | 68 | 1011.1 |
| 20260906062716 | 84 | 190 | 4.0 | 5.0 | 0.00 | 0.00 | 0.00 | 68 | 1011.1 |
| 20260906061718 | 84 | 185 | 3.0 | 6.0 | 0.00 | 0.00 | 0.00 | 67 | 1010.9 |
| 20260906060718 | 84 | 177 | 2.0 | 7.0 | 0.00 | 0.00 | 0.00 | 67 | 1011.2 |
| 20260906055717 | 84 | 180 | 2.0 | 4.0 | 0.00 | 0.00 | 0.00 | 66 | 1011.2 |
| 20260906054717 | 85 | 180 | 3.0 | 6.0 | 0.00 | 0.00 | 0.00 | 65 | 1011.2 |
| 20260906053718 | 85 | 142 | 2.0 | 6.0 | 0.00 | 0.00 | 0.00 | 65 | 1011.1 |
| 20260906052716 | 85 | 150 | 2.0 | 6.0 | 0.00 | 0.00 | 0.00 | 65 | 1011.2 |
| 20260906051718 | 85 | 151 | 2.0 | 6.0 | 0.00 | 0.00 | 0.00 | 65 | 1011.2 |
| 20260906050710 | 85 | 167 | 2.0 | 6.0 | 0.00 | 0.00 | 0.00 | 64 | 1011.3 |
| 20260906045711 | 86 | 147 | 1.0 | 5.0 | 0.00 | 0.00 | 0.00 | 64 | 1011.2 |
| 20260906045201 | 86 | 161 | 1.0 | 4.0 | 0.00 | 0.00 | 0.00 | 63 | 1011.1 |
| 20260906043711 | 86 | 176 | 2.0 | 6.0 | 0.00 | 0.00 | 0.00 | 63 | 1010.9 |
| 20260906042711 | 87 | 167 | 2.0 | 5.0 | 0.00 | 0.00 | 0.00 | 62 | 1010.9 |
| 20260906041712 | 87 | 147 | 2.0 | 6.0 | 0.00 | 0.00 | 0.00 | 62 | 1010.8 |
| 20260906040710 | 87 | 168 | 1.0 | 6.0 | 0.00 | 0.00 | 0.00 | 61 | 1010.9 |
| 20260906035710 | 87 | 152 | 1.0 | 5.0 | 0.00 | 0.00 | 0.00 | 60 | 1010.8 |
| 20260906034708 | 88 | 173 | 2.0 | 8.0 | 0.00 | 0.00 | 0.00 | 60 | 1010.9 |
| 20260906033710 | 88 | 138 | 1.0 | 7.0 | 0.00 | 0.00 | 0.00 | 59 | 1010.9 |
| 20260906032708 | 88 | 163 | 1.0 | 5.0 | 0.00 | 0.00 | 0.00 | 58 | 1010.9 |
| 20260906031708 | 89 | 115 | 1.0 | 5.0 | 0.00 | 0.00 | 0.00 | 58 | 1010.8 |
| 20260906030710 | 89 | 146 | 2.0 | 6.0 | 0.00 | 0.00 | 0.00 | 57 | 1010.8 |
| 20260906025708 | 89 | 142 | 2.0 | 7.0 | 0.00 | 0.00 | 0.00 | 56 | 1010.8 |
| 20260906024706 | 90 | 150 | 2.0 | 8.0 | 0.00 | 0.00 | 0.00 | 56 | 1010.7 |
| 20260906023705 | 90 | 112 | 2.0 | 7.0 | 0.00 | 0.00 | 0.00 | 55 | 1010.4 |
| 20260906022709 | 90 | 96 | 2.0 | 6.0 | 0.00 | 0.00 | 0.00 | 54 | 1010.3 |
| 20260906021709 | 91 | 97 | 3.0 | 8.0 | 0.00 | 0.00 | 0.00 | 53 | 1010.2 |
| 20260906021147 | 92 | 90 | 3.0 | 9.0 | 0.00 | 0.00 | 0.00 | 52 | 1010.0 |
| 20260906015702 | 93 | 80 | 3.0 | 8.0 | 0.00 | 0.00 | 0.00 | 50 | 1009.8 |
| 20260906014702 | 93 | 88 | 2.0 | 4.0 | 0.00 | 0.00 | 0.00 | 45 | 1009.5 |
| 20260906013700 | 93 | 78 | 1.0 | 4.0 | 0.00 | 0.00 | 0.00 | 45 | 1009.4 |
| 20260906012659 | 93 | 59 | 1.0 | 3.0 | 0.00 | 0.00 | 0.00 | 44 | 1009.2 |
| 20260906011700 | 94 | 82 | 1.0 | 3.0 | 0.00 | 0.00 | 0.00 | 44 | 1009.1 |
| 20260906011142 | 94 | 84 | 1.0 | 3.0 | 0.00 | 0.00 | 0.00 | 43 | 1009.1 |
| 20260906005659 | 95 | 82 | 2.0 | 5.0 | 0.00 | 0.00 | 0.00 | 42 | 1009.0 |
| 20260906005138 | 95 | 88 | 2.0 | 6.0 | 0.00 | 0.00 | 0.00 | 41 | 1009.0 |
| 20260906003700 | 96 | 74 | 2.0 | 8.0 | 0.00 | 0.00 | 0.00 | 41 | 1009.0 |
| 20260906002659 | 96 | 92 | 2.0 | 7.0 | 0.00 | 0.00 | 0.00 | 41 | 1009.0 |
| 20260906001659 | 96 | 85 | 2.0 | 6.0 | 0.00 | 0.00 | 0.00 | 41 | 1009.0 |
| 20260906000700 | 97 | 79 | 4.0 | 9.0 | 0.00 | 0.00 | 0.00 | 40 | 1008.9 |
| 20260906000146 | 97 | 82 | 2.0 | 7.0 | 0.00 | 0.00 | 0.00 | 40 | 1008.8 |
| 20260905234658 | 98 | 80 | 2.0 | 4.0 | 0.00 | 0.00 | 0.00 | 40 | 1008.8 |
| 20260905233700 | 98 | 153 | 3.0 | 9.0 | 0.00 | 0.00 | 0.00 | 40 | 1008.7 |
| 20260905232700 | 98 | 97 | 4.0 | 8.0 | 0.00 | 0.00 | 0.00 | 39 | 1008.8 |
| 20260905230659 | 98 | 98 | 2.0 | 7.0 | 0.00 | 0.00 | 0.00 | 39 | 1008.7 |
| 20260905225659 | 98 | 113 | 3.0 | 7.0 | 0.00 | 0.00 | 0.00 | 38 | 1008.7 |
| 20260905224658 | 98 | 82 | 2.0 | 6.0 | 0.00 | 0.00 | 0.00 | 38 | 1008.7 |
| 20260905223701 | 98 | 76 | 2.0 | 8.0 | 0.00 | 0.00 | 0.00 | 40 | 1008.7 |
| 20260905222700 | 98 | 84 | 3.0 | 9.0 | 0.00 | 0.00 | 0.00 | 39 | 1008.7 |
| 20260905221700 | 98 | 55 | 4.0 | 9.0 | 0.00 | 0.00 | 0.00 | 39 | 1008.8 |
| 20260905220701 | 98 | 30 | 3.0 | 10.0 | 0.00 | 0.00 | 0.00 | 39 | 1008.8 |
| 20260905215658 | 99 | 89 | 2.0 | 7.0 | 0.00 | 0.00 | 0.00 | 39 | 1008.9 |
| 20260905214659 | 98 | 117 | 2.0 | 7.0 | 0.00 | 0.00 | 0.00 | 40 | 1009.0 |
| 20260905213701 | 97 | 160 | 3.0 | 8.0 | 0.00 | 0.00 | 0.00 | 41 | 1009.1 |
| 20260905212659 | 98 | 101 | 3.0 | 8.0 | 0.00 | 0.00 | 0.00 | 40 | 1009.2 |
| 20260905211659 | 98 | 61 | 3.0 | 12.0 | 0.00 | 0.00 | 0.00 | 40 | 1009.3 |
| 20260905210703 | 98 | 88 | 2.0 | 7.0 | 0.00 | 0.00 | 0.00 | 40 | 1009.4 |
| 20260905205703 | 99 | 75 | 3.0 | 8.0 | 0.00 | 0.00 | 0.00 | 39 | 1009.6 |
| 20260905204702 | 99 | 84 | 2.0 | 6.0 | 0.00 | 0.00 | 0.00 | 40 | 1009.7 |
| 20260905203700 | 98 | 159 | 4.0 | 12.0 | 0.00 | 0.00 | 0.00 | 41 | 1009.9 |
| 20260905202702 | 97 | 76 | 2.0 | 6.0 | 0.00 | 0.00 | 0.00 | 42 | 1010.0 |
| 20260905201658 | 97 | 144 | 2.0 | 8.0 | 0.00 | 0.00 | 0.00 | 41 | 1010.1 |
| 20260905200653 | 97 | 90 | 3.0 | 8.0 | 0.00 | 0.00 | 0.00 | 41 | 1010.3 |
| 20260905195655 | 97 | 54 | 3.0 | 8.0 | 0.00 | 0.00 | 0.00 | 41 | 1010.4 |
| 20260905194656 | 97 | 198 | 4.0 | 11.0 | 0.00 | 0.00 | 0.00 | 41 | 1010.6 |
| 20260905194144 | 98 | 191 | 4.0 | 10.0 | 0.00 | 0.00 | 0.00 | 41 | 1010.7 |
| 20260905192654 | 97 | 137 | 4.0 | 11.0 | 0.00 | 0.00 | 0.00 | 42 | 1010.9 |
| 20260905191653 | 96 | 229 | 4.0 | 11.0 | 0.00 | 0.00 | 0.00 | 42 | 1011.1 |
| 20260905190653 | 96 | 92 | 4.0 | 9.0 | 0.00 | 0.00 | 0.00 | 45 | 1011.3 |
| 20260905185653 | 95 | 258 | 7.0 | 12.0 | 0.00 | 0.00 | 0.00 | 44 | 1011.5 |
| 20260905184653 | 95 | 269 | 5.0 | 10.0 | 0.00 | 0.00 | 0.00 | 43 | 1011.6 |
| 20260905183655 | 96 | 188 | 3.0 | 12.0 | 0.00 | 0.00 | 0.00 | 43 | 1011.8 |
| 20260905182653 | 95 | 143 | 6.0 | 23.0 | 0.00 | 0.00 | 0.00 | 43 | 1011.7 |
| 20260905181654 | 96 | 161 | 3.0 | 11.0 | 0.00 | 0.00 | 0.00 | 44 | 1012.1 |
| 20260905180653 | 95 | 131 | 2.0 | 11.0 | 0.00 | 0.00 | 0.00 | 45 | 1012.2 |
| 20260905175658 | 95 | 163 | 3.0 | 8.0 | 0.00 | 0.00 | 0.00 | 49 | 1012.4 |
| 20260905174656 | 94 | 169 | 3.0 | 9.0 | 0.00 | 0.00 | 0.00 | 46 | 1012.5 |
| 20260905173654 | 94 | 89 | 3.0 | 8.0 | 0.00 | 0.00 | 0.00 | 47 | 1012.6 |
| 20260905172654 | 93 | 146 | 5.0 | 9.0 | 0.00 | 0.00 | 0.00 | 49 | 1012.6 |
| 20260905171653 | 92 | 207 | 6.0 | 11.0 | 0.00 | 0.00 | 0.00 | 49 | 1012.7 |
| 20260905170655 | 92 | 186 | 3.0 | 9.0 | 0.00 | 0.00 | 0.00 | 49 | 1012.9 |
| 20260905170136 | 92 | 80 | 2.0 | 7.0 | 0.00 | 0.00 | 0.00 | 51 | 1012.9 |
| 20260905164652 | 91 | 69 | 2.0 | 5.0 | 0.00 | 0.00 | 0.00 | 53 | 1012.9 |
| 20260905163650 | 90 | 125 | 2.0 | 7.0 | 0.00 | 0.00 | 0.00 | 55 | 1013.0 |
| 20260905162651 | 90 | 210 | 3.0 | 8.0 | 0.00 | 0.00 | 0.00 | 55 | 1013.0 |
| 20260905161650 | 89 | 72 | 4.0 | 8.0 | 0.00 | 0.00 | 0.00 | 56 | 1013.0 |
| 20260905160644 | 89 | 170 | 4.0 | 9.0 | 0.00 | 0.00 | 0.00 | 57 | 1013.1 |
| 20260905155643 | 88 | 157 | 2.0 | 8.0 | 0.00 | 0.00 | 0.00 | 59 | 1013.1 |
| 20260905154647 | 88 | 226 | 2.0 | 8.0 | 0.00 | 0.00 | 0.00 | 59 | 1013.1 |
| 20260905153643 | 87 | 323 | 3.0 | 5.0 | 0.00 | 0.00 | 0.00 | 62 | 1013.1 |
| 20260905152643 | 86 | 191 | 4.0 | 8.0 | 0.00 | 0.00 | 0.00 | 62 | 1013.0 |
| 20260905151642 | 85 | 237 | 3.0 | 6.0 | 0.00 | 0.00 | 0.00 | 64 | 1013.0 |
| 20260905150641 | 85 | 192 | 3.0 | 6.0 | 0.00 | 0.00 | 0.00 | 66 | 1013.0 |
| 20260905150130 | 84 | 218 | 4.0 | 8.0 | 0.00 | 0.01 | 0.00 | 68 | 1013.0 |
| 20260905144639 | 83 | 202 | 4.0 | 8.0 | 0.00 | 0.03 | 0.00 | 69 | 1013.0 |
| 20260905143639 | 83 | 185 | 4.0 | 8.0 | 0.00 | 0.05 | 0.00 | 71 | 1012.9 |
| 20260905142642 | 82 | 188 | 5.0 | 8.0 | 0.00 | 0.05 | 0.00 | 72 | 1012.9 |
| 20260905141640 | 82 | 210 | 4.0 | 8.0 | 0.00 | 0.05 | 0.00 | 73 | 1012.8 |
| 20260905140637 | 82 | 196 | 5.0 | 8.0 | 0.00 | 0.05 | 0.00 | 74 | 1012.8 |
| 20260905135636 | 81 | 189 | 4.0 | 7.0 | 0.00 | 0.05 | 0.00 | 75 | 1012.8 |
| 20260905134638 | 81 | 188 | 3.0 | 6.0 | 0.00 | 0.05 | 0.00 | 76 | 1012.8 |
| 20260905133636 | 80 | 148 | 2.0 | 5.0 | 0.00 | 0.05 | 0.00 | 77 | 1012.7 |
| 20260905132635 | 80 | 159 | 2.0 | 5.0 | 0.00 | 0.05 | 0.00 | 78 | 1012.7 |
| 20260905131636 | 79 | 175 | 2.0 | 4.0 | 0.00 | 0.05 | 0.00 | 79 | 1012.6 |
| 20260905131124 | 79 | 146 | 1.0 | 3.0 | 0.00 | 0.05 | 0.00 | 80 | 1012.6 |
| 20260905125636 | 78 | 146 | 1.0 | 2.0 | 0.00 | 0.05 | 0.00 | 81 | 1012.4 |
| 20260905124636 | 78 | 146 | 0.0 | 1.0 | 0.00 | 0.05 | 0.00 | 81 | 1012.4 |
| 20260905123637 | 77 | 146 | 0.0 | 1.0 | 0.00 | 0.05 | 0.00 | 81 | 1012.3 |
| 20260905122636 | 77 | 146 | 0.0 | 2.0 | 0.00 | 0.05 | 0.00 | 80 | 1012.1 |
| 20260905121639 | 77 | 146 | 0.0 | 2.0 | 0.00 | 0.05 | 0.00 | 80 | 1012.1 |
| 20260905120631 | 78 | 146 | 0.0 | 3.0 | 0.00 | 0.05 | 0.00 | 80 | 1011.9 |
| 20260905115630 | 78 | 146 | 1.0 | 4.0 | 0.00 | 0.05 | 0.00 | 79 | 1011.8 |
| 20260905114630 | 78 | 165 | 1.0 | 4.0 | 0.00 | 0.05 | 0.00 | 79 | 1011.8 |
| 20260905113630 | 78 | 183 | 2.0 | 4.0 | 0.00 | 0.05 | 0.00 | 80 | 1011.8 |
| 20260905112631 | 78 | 183 | 2.0 | 5.0 | 0.00 | 0.05 | 0.00 | 79 | 1011.8 |
| 20260905111634 | 78 | 148 | 1.0 | 3.0 | 0.00 | 0.05 | 0.00 | 79 | 1011.8 |
| 20260905110630 | 78 | 155 | 1.0 | 2.0 | 0.00 | 0.05 | 0.00 | 78 | 1011.9 |
| 20260905110115 | 78 | 155 | 0.0 | 1.0 | 0.00 | 0.05 | 0.00 | 78 | 1011.8 |
| 20260905104628 | 78 | 157 | 1.0 | 5.0 | 0.00 | 0.05 | 0.00 | 78 | 1011.8 |
| 20260905103622 | 79 | 154 | 1.0 | 2.0 | 0.00 | 0.05 | 0.00 | 77 | 1011.9 |
| 20260905102621 | 79 | 163 | 1.0 | 4.0 | 0.00 | 0.05 | 0.00 | 77 | 1011.9 |
| 20260905101621 | 79 | 165 | 1.0 | 4.0 | 0.00 | 0.05 | 0.00 | 77 | 1011.8 |
| 20260905100623 | 79 | 165 | 2.0 | 5.0 | 0.00 | 0.05 | 0.00 | 76 | 1011.8 |
| 20260905095623 | 79 | 161 | 3.0 | 5.0 | 0.00 | 0.05 | 0.00 | 76 | 1011.9 |
| 20260905094621 | 79 | 161 | 2.0 | 5.0 | 0.00 | 0.05 | 0.00 | 76 | 1011.9 |
| 20260905093623 | 79 | 161 | 2.0 | 4.0 | 0.00 | 0.07 | 0.00 | 75 | 1011.9 |
| 20260905092622 | 79 | 148 | 2.0 | 4.0 | 0.00 | 0.07 | 0.00 | 75 | 1011.8 |
| 20260905091620 | 80 | 184 | 2.0 | 5.0 | 0.00 | 0.07 | 0.00 | 75 | 1011.8 |
| 20260905090622 | 80 | 161 | 1.0 | 4.0 | 0.00 | 0.07 | 0.00 | 74 | 1011.8 |
| 20260905085617 | 80 | 161 | 2.0 | 4.0 | 0.00 | 0.07 | 0.00 | 74 | 1011.8 |
| 20260905085058 | 80 | 161 | 2.0 | 4.0 | 0.00 | 0.07 | 0.00 | 73 | 1011.7 |
| 20260905084055 | 80 | 161 | 1.0 | 5.0 | 0.00 | 0.07 | 0.00 | 73 | 1011.6 |
| 20260905082617 | 80 | 192 | 3.0 | 5.0 | 0.00 | 0.07 | 0.00 | 73 | 1011.6 |
| 20260905081619 | 81 | 186 | 3.0 | 6.0 | 0.00 | 0.07 | 0.00 | 72 | 1011.6 |
| 20260905080618 | 81 | 190 | 4.0 | 7.0 | 0.00 | 0.07 | 0.00 | 72 | 1011.4 |